Tiempo cada hora Abercanaid

Hoy, 22 Octubre, Jueves

Tiempo Temperatura Precipitaciones Viento Presión Humedad
00:00 +10°C° 0 mm 4 mps 727 mmHg 96%
01:00 +10°C° 0.1 mm 4 mps 728 mmHg 96%
02:00 +9°C° 0.1 mm 3 mps 728 mmHg 96%
03:00 +9°C° 0.1 mm 3 mps 728 mmHg 96%
04:00 +8°C° 0 mm 3 mps 729 mmHg 95%
05:00 +8°C° 0 mm 2 mps 729 mmHg 95%
06:00 +7°C° 0 mm 2 mps 729 mmHg 95%
07:00 +8°C° 0 mm 2 mps 730 mmHg 92%
08:00 +8°C° 0 mm 2 mps 730 mmHg 89%
09:00 +9°C° 0 mm 2 mps 731 mmHg 86%
10:00 +9°C° 0 mm 3 mps 731 mmHg 84%
11:00 +10°C° 0 mm 3 mps 731 mmHg 81%
12:00 +11°C° 0 mm 4 mps 731 mmHg 79%
13:00 +10°C° 0 mm 4 mps 731 mmHg 79%
14:00 +10°C° 0 mm 4 mps 731 mmHg 79%
15:00 +10°C° 0 mm 4 mps 731 mmHg 79%
16:00 +9°C° 0 mm 3 mps 731 mmHg 83%
17:00 +7°C° 0 mm 2 mps 731 mmHg 87%
18:00 +7°C° 0 mm 1 mps 731 mmHg 91%
19:00 +7°C° 0 mm 1 mps 731 mmHg 91%
20:00 +6°C° 0 mm 1 mps 732 mmHg 91%
21:00 +5°C° 0 mm 0 mps 732 mmHg 91%
22:00 +6°C° 0 mm 0 mps 732 mmHg 90%
23:00 +6°C° 0 mm 0 mps 732 mmHg 88%

Mañana, 23 Octubre, Viernes

Tiempo Temperatura Precipitaciones Viento Presión Humedad
00:00 +7°C° 0 mm 0 mps 731 mmHg 86%
01:00 +8°C° 0 mm 1 mps 731 mmHg 87%
02:00 +8°C° 0 mm 1 mps 731 mmHg 88%
03:00 +8°C° 0 mm 1 mps 730 mmHg 90%
04:00 +7°C° 0 mm 1 mps 730 mmHg 91%
05:00 +6°C° 0 mm 2 mps 730 mmHg 91%
06:00 +6°C° 0 mm 2 mps 730 mmHg 92%
07:00 +7°C° 0 mm 3 mps 730 mmHg 89%
08:00 +7°C° 0 mm 4 mps 730 mmHg 86%
09:00 +7°C° 0 mm 5 mps 730 mmHg 83%
10:00 +8°C° 0.1 mm 5 mps 731 mmHg 85%
11:00 +8°C° 0.1 mm 5 mps 731 mmHg 87%
12:00 +8°C° 0.1 mm 6 mps 731 mmHg 89%
13:00 +8°C° 0.1 mm 6 mps 731 mmHg 85%
14:00 +8°C° 0.1 mm 6 mps 731 mmHg 80%
15:00 +8°C° 0.1 mm 6 mps 732 mmHg 76%
16:00 +7°C° 0 mm 5 mps 732 mmHg 80%
17:00 +5°C° 0 mm 4 mps 732 mmHg 83%
18:00 +4°C° 0 mm 3 mps 732 mmHg 87%
19:00 +4°C° 0 mm 3 mps 732 mmHg 87%
20:00 +4°C° 0 mm 3 mps 733 mmHg 87%
21:00 +4°C° 0 mm 3 mps 733 mmHg 86%
22:00 +4°C° 0 mm 3 mps 733 mmHg 87%
23:00 +5°C° 0 mm 4 mps 732 mmHg 88%

Pasado mañana, 24 Octubre, Sábado

Tiempo Temperatura Precipitaciones Viento Presión Humedad
00:00 +5°C° 0 mm 5 mps 732 mmHg 88%
01:00 +6°C° 0 mm 5 mps 731 mmHg 87%
02:00 +5°C° 0 mm 6 mps 731 mmHg 86%
03:00 +5°C° 0 mm 6 mps 731 mmHg 85%
04:00 +6°C° 0 mm 7 mps 730 mmHg 85%
05:00 +6°C° 0 mm 7 mps 729 mmHg 85%
06:00 +7°C° 0 mm 8 mps 728 mmHg 85%
07:00 +7°C° 0 mm 8 mps 728 mmHg 86%
08:00 +8°C° 0 mm 9 mps 727 mmHg 87%
09:00 +9°C° 0 mm 10 mps 726 mmHg 87%
10:00 +11°C° 0.1 mm 10 mps 726 mmHg 87%
11:00 +11°C° 0.1 mm 10 mps 725 mmHg 87%
12:00 +12°C° 0.1 mm 10 mps 724 mmHg 86%
13:00 +12°C° 0.4 mm 11 mps 724 mmHg 86%
14:00 +12°C° 0.4 mm 11 mps 723 mmHg 85%
15:00 +12°C° 0.4 mm 12 mps 723 mmHg 85%
16:00 +11°C° 2.7 mm 10 mps 722 mmHg 88%
17:00 +10°C° 2.7 mm 7 mps 722 mmHg 92%
18:00 +8°C° 2.7 mm 5 mps 721 mmHg 95%
19:00 +8°C° 0.5 mm 5 mps 721 mmHg 94%
20:00 +8°C° 0.5 mm 5 mps 722 mmHg 92%
21:00 +7°C° 0.5 mm 5 mps 722 mmHg 91%
22:00 +7°C° 0.4 mm 5 mps 722 mmHg 90%
23:00 +7°C° 0.4 mm 6 mps 722 mmHg 88%

, 25 Octubre, Domingo

Tiempo Temperatura Precipitaciones Viento Presión Humedad
00:00 +7°C° 0.4 mm 6 mps 722 mmHg 87%
01:00 +7°C° 0.1 mm 6 mps 722 mmHg 87%
02:00 +5°C° 0.1 mm 6 mps 722 mmHg 86%
03:00 +5°C° 0.1 mm 6 mps 722 mmHg 86%
04:00 +5°C° 0.2 mm 6 mps 722 mmHg 87%
05:00 +5°C° 0.2 mm 6 mps 723 mmHg 87%
06:00 +5°C° 0.2 mm 6 mps 723 mmHg 88%
07:00 +5°C° 0.2 mm 6 mps 723 mmHg 87%
08:00 +7°C° 0.2 mm 6 mps 723 mmHg 86%
09:00 +6°C° 0.2 mm 7 mps 723 mmHg 85%
10:00 +8°C° 0.2 mm 7 mps 723 mmHg 82%
11:00 +7°C° 0.2 mm 8 mps 723 mmHg 79%
12:00 +9°C° 0.2 mm 8 mps 724 mmHg 76%
13:00 +9°C° 0.3 mm 8 mps 723 mmHg 77%
14:00 +9°C° 0.3 mm 7 mps 723 mmHg 78%
15:00 +8°C° 0.3 mm 6 mps 723 mmHg 80%
16:00 +7°C° 0.1 mm 5 mps 724 mmHg 83%
17:00 +6°C° 0.1 mm 4 mps 724 mmHg 86%
18:00 +5°C° 0.1 mm 3 mps 724 mmHg 90%
19:00 +5°C° 0 mm 3 mps 725 mmHg 90%
20:00 +6°C° 0 mm 2 mps 725 mmHg 90%
21:00 +5°C° 0 mm 2 mps 725 mmHg 91%
22:00 +5°C° 0 mm 2 mps 725 mmHg 91%
23:00 +6°C° 0 mm 1 mps 725 mmHg 91%

25 Octubre, Domingo

Tiempo Temperatura Precipitaciones Viento Presión Humedad
00:00 +7°C° 0.4 mm 6 mps 722 mmHg 87%
01:00 +7°C° 0.1 mm 6 mps 722 mmHg 87%
02:00 +5°C° 0.1 mm 6 mps 722 mmHg 86%
03:00 +5°C° 0.1 mm 6 mps 722 mmHg 86%
04:00 +5°C° 0.2 mm 6 mps 722 mmHg 87%
05:00 +5°C° 0.2 mm 6 mps 723 mmHg 87%
06:00 +5°C° 0.2 mm 6 mps 723 mmHg 88%
07:00 +5°C° 0.2 mm 6 mps 723 mmHg 87%
08:00 +7°C° 0.2 mm 6 mps 723 mmHg 86%
09:00 +6°C° 0.2 mm 7 mps 723 mmHg 85%
10:00 +8°C° 0.2 mm 7 mps 723 mmHg 82%
11:00 +7°C° 0.2 mm 8 mps 723 mmHg 79%
12:00 +9°C° 0.2 mm 8 mps 724 mmHg 76%
13:00 +9°C° 0.3 mm 8 mps 723 mmHg 77%
14:00 +9°C° 0.3 mm 7 mps 723 mmHg 78%
15:00 +8°C° 0.3 mm 6 mps 723 mmHg 80%
16:00 +7°C° 0.1 mm 5 mps 724 mmHg 83%
17:00 +6°C° 0.1 mm 4 mps 724 mmHg 86%
18:00 +5°C° 0.1 mm 3 mps 724 mmHg 90%
19:00 +5°C° 0 mm 3 mps 725 mmHg 90%
20:00 +6°C° 0 mm 2 mps 725 mmHg 90%
21:00 +5°C° 0 mm 2 mps 725 mmHg 91%
22:00 +5°C° 0 mm 2 mps 725 mmHg 91%
23:00 +6°C° 0 mm 1 mps 725 mmHg 91%

26 Octubre, Lunes

Tiempo Temperatura Precipitaciones Viento Presión Humedad
00:00 +6°C° 0 mm 1 mps 725 mmHg 91%
01:00 +5°C° 0.1 mm 1 mps 725 mmHg 92%
02:00 +5°C° 0.1 mm 1 mps 726 mmHg 92%
03:00 +4°C° 0.1 mm 0 mps 726 mmHg 92%
04:00 +5°C° 0 mm 1 mps 726 mmHg 92%
05:00 +5°C° 0 mm 1 mps 727 mmHg 92%
06:00 +5°C° 0 mm 1 mps 728 mmHg 92%
07:00 +5°C° 0 mm 2 mps 728 mmHg 90%
08:00 +5°C° 0 mm 2 mps 729 mmHg 88%
09:00 +6°C° 0 mm 2 mps 729 mmHg 86%
10:00 +7°C° 0 mm 2 mps 730 mmHg 83%
11:00 +8°C° 0 mm 3 mps 730 mmHg 80%
12:00 +8°C° 0 mm 4 mps 731 mmHg 77%
13:00 +8°C° 0 mm 4 mps 731 mmHg 77%
14:00 +8°C° 0 mm 4 mps 731 mmHg 76%
15:00 +9°C° 0 mm 3 mps 731 mmHg 76%
16:00 +8°C° 0 mm 3 mps 731 mmHg 81%
17:00 +5°C° 0 mm 3 mps 731 mmHg 86%
18:00 +5°C° 0 mm 2 mps 731 mmHg 90%
19:00 +4°C° 0 mm 2 mps 732 mmHg 90%
20:00 +5°C° 0 mm 1 mps 732 mmHg 89%
21:00 +4°C° 0 mm 1 mps 732 mmHg 88%
22:00 +5°C° 0 mm 1 mps 732 mmHg 87%
23:00 +4°C° 0 mm 2 mps 731 mmHg 87%

27 Octubre, Martes

Tiempo Temperatura Precipitaciones Viento Presión Humedad
00:00 +4°C° 0 mm 2 mps 731 mmHg 86%
01:00 +3°C° 0 mm 3 mps 731 mmHg 87%
02:00 +4°C° 0 mm 3 mps 730 mmHg 88%
03:00 +5°C° 0 mm 4 mps 730 mmHg 90%
04:00 +5°C° 0.1 mm 4 mps 729 mmHg 90%
05:00 +6°C° 0.1 mm 5 mps 729 mmHg 90%
06:00 +5°C° 0.1 mm 6 mps 728 mmHg 91%
07:00 +7°C° 0.7 mm 6 mps 728 mmHg 92%
08:00 +6°C° 0.7 mm 7 mps 727 mmHg 94%
09:00 +6°C° 0.7 mm 7 mps 726 mmHg 95%
10:00 +7°C° 1 mm 8 mps 726 mmHg 95%
11:00 +9°C° 1 mm 8 mps 726 mmHg 95%
12:00 +9°C° 1 mm 8 mps 725 mmHg 95%
13:00 +10°C° 0.9 mm 8 mps 725 mmHg 94%
14:00 +10°C° 0.9 mm 7 mps 725 mmHg 93%
15:00 +11°C° 0.9 mm 7 mps 724 mmHg 92%
16:00 +10°C° 0.1 mm 7 mps 725 mmHg 91%
17:00 +9°C° 0.1 mm 6 mps 725 mmHg 91%
18:00 +8°C° 0.1 mm 6 mps 725 mmHg 90%
19:00 +7°C° 0.1 mm 6 mps 726 mmHg 89%
20:00 +7°C° 0.1 mm 5 mps 726 mmHg 88%
21:00 +6°C° 0.1 mm 5 mps 727 mmHg 88%
22:00 +6°C° 0.1 mm 5 mps 727 mmHg 88%
23:00 +5°C° 0.1 mm 5 mps 727 mmHg 88%
Mostrar más

Necesitamos Su Consentimiento

Meteoprog y nuestros Proveedores de Servicios pueden almacenar y acceder a sus datos personales como cookies, identificadores de dispositivo u otras tecnologías similares de su dispositivo y procesar dichos datos para personalizar contenido y anuncios, además de ofrecer funciones de redes sociales y analizar el tráfico.

  • Almacenar y/o acceder a información en su dispositivo

    Se puede almacenar o acceder a cookies, identificadores de dispositivo u otra información de su dispositivo para los fines anteriormente indicados.

  • Anuncios y contenido personalizados, medición de anuncios y contenido, percepciones del público, y desarrollo de productos

    Los anuncios y el contenido pueden personalizarse en base a su perfil. Se pueden añadir más datos para personalizar mejor los anuncios y contenidos. Se puede medir el rendimiento de los anuncios y contenidos. Se puede obtener la percepción sobre el público que ha visto los anuncios y contenidos. Dichos datos pueden usarse para desarrollar o mejorar la experiencia del usuario, sistemas y software.

Al hacer clic en ‘Estoy De Acuerdo’ usted permitirá el uso de las cookies, identificadores de dispositivo, balizas web u otras tecnologías similares indicadas. Su configuración puede cambiarse desde el navegador de su dispositivo.

Para ciertos fines, los intereses legítimos pueden ser considerados por encima del consentimiento. Puede leer más sobre ello en nuestra Política de Privacidad y Cookies.